Meteo pe oră la Dabrowica

Astăzi, 15 Aprilie, Joi

Timp Temperatura Precipitaţii Vânt Presiune Umiditate
00:00 0°C° 0.6 mm 5 m/s 753 mmHg 98%
01:00 0°C° 0.6 mm 5 m/s 753 mmHg 98%
02:00 0°C° 0.7 mm 5 m/s 753 mmHg 98%
03:00 0°C° 0.7 mm 4 m/s 752 mmHg 98%
04:00 0°C° 0.7 mm 4 m/s 752 mmHg 98%
05:00 0°C° 0.6 mm 4 m/s 752 mmHg 98%
06:00 +1°C° 0.6 mm 3 m/s 752 mmHg 98%
07:00 +1°C° 0.6 mm 3 m/s 752 mmHg 98%
08:00 +1°C° 0.2 mm 3 m/s 752 mmHg 98%
09:00 +2°C° 0.2 mm 3 m/s 752 mmHg 98%
10:00 +2°C° 0.2 mm 3 m/s 752 mmHg 98%
11:00 +4°C° 0.1 mm 2 m/s 752 mmHg 98%
12:00 +4°C° 0.1 mm 2 m/s 752 mmHg 97%
13:00 +4°C° 0.1 mm 2 m/s 752 mmHg 97%
14:00 +4°C° 0.1 mm 2 m/s 752 mmHg 98%
15:00 +4°C° 0.1 mm 2 m/s 752 mmHg 98%
16:00 +4°C° 0.1 mm 2 m/s 752 mmHg 98%
17:00 +4°C° 0 mm 2 m/s 752 mmHg 98%
18:00 +4°C° 0 mm 2 m/s 753 mmHg 98%
19:00 +4°C° 0 mm 2 m/s 753 mmHg 98%
20:00 +4°C° 0 mm 2 m/s 753 mmHg 98%
21:00 +4°C° 0 mm 2 m/s 753 mmHg 97%
22:00 +3°C° 0 mm 3 m/s 753 mmHg 97%
23:00 +3°C° 0.3 mm 3 m/s 752 mmHg 97%

Mâine, 16 Aprilie, Vineri

Timp Temperatura Precipitaţii Vânt Presiune Umiditate
00:00 +3°C° 0.3 mm 3 m/s 752 mmHg 97%
01:00 +3°C° 0.3 mm 3 m/s 752 mmHg 98%
02:00 +3°C° 0.5 mm 3 m/s 752 mmHg 98%
03:00 +2°C° 0.5 mm 3 m/s 752 mmHg 98%
04:00 +2°C° 0.5 mm 3 m/s 751 mmHg 98%
05:00 +3°C° 0.6 mm 3 m/s 751 mmHg 97%
06:00 +3°C° 0.6 mm 4 m/s 751 mmHg 97%
07:00 +3°C° 0.6 mm 4 m/s 751 mmHg 97%
08:00 +3°C° 0.5 mm 4 m/s 751 mmHg 96%
09:00 +3°C° 0.5 mm 4 m/s 752 mmHg 96%
10:00 +3°C° 0.5 mm 4 m/s 752 mmHg 95%
11:00 +4°C° 0.1 mm 4 m/s 752 mmHg 95%
12:00 +4°C° 0.1 mm 4 m/s 752 mmHg 95%
13:00 +4°C° 0.1 mm 4 m/s 752 mmHg 94%
14:00 +5°C° 0 mm 4 m/s 752 mmHg 94%
15:00 +5°C° 0 mm 4 m/s 752 mmHg 93%
16:00 +7°C° 0 mm 3 m/s 752 mmHg 93%
17:00 +7°C° 0.2 mm 3 m/s 752 mmHg 94%
18:00 +5°C° 0.2 mm 4 m/s 753 mmHg 96%
19:00 +5°C° 0.2 mm 4 m/s 753 mmHg 97%
20:00 +5°C° 0.3 mm 4 m/s 753 mmHg 97%
21:00 +5°C° 0.3 mm 3 m/s 753 mmHg 97%
22:00 +5°C° 0.3 mm 3 m/s 753 mmHg 97%
23:00 +5°C° 0 mm 3 m/s 753 mmHg 97%

Poimâine, 17 Aprilie, Sâmbătă

Timp Temperatura Precipitaţii Vânt Presiune Umiditate
00:00 +5°C° 0 mm 3 m/s 753 mmHg 98%
01:00 +5°C° 0 mm 3 m/s 753 mmHg 98%
02:00 +5°C° 0.3 mm 3 m/s 753 mmHg 98%
03:00 +6°C° 0.3 mm 2 m/s 753 mmHg 98%
04:00 +6°C° 0.3 mm 2 m/s 753 mmHg 98%
05:00 +7°C° 0.5 mm 2 m/s 753 mmHg 98%
06:00 +7°C° 0.5 mm 2 m/s 753 mmHg 97%
07:00 +7°C° 0.5 mm 2 m/s 753 mmHg 96%
08:00 +8°C° 0 mm 3 m/s 753 mmHg 91%
09:00 +8°C° 0 mm 3 m/s 754 mmHg 87%
10:00 +9°C° 0 mm 3 m/s 754 mmHg 83%
11:00 +8°C° 0.1 mm 4 m/s 754 mmHg 81%
12:00 +8°C° 0.1 mm 4 m/s 754 mmHg 78%
13:00 +10°C° 0.1 mm 4 m/s 754 mmHg 76%
14:00 +10°C° 0.1 mm 4 m/s 754 mmHg 76%
15:00 +10°C° 0.1 mm 4 m/s 754 mmHg 76%
16:00 +10°C° 0.1 mm 4 m/s 754 mmHg 76%
17:00 +8°C° 0 mm 4 m/s 754 mmHg 80%
18:00 +8°C° 0 mm 3 m/s 755 mmHg 84%
19:00 +7°C° 0 mm 3 m/s 755 mmHg 88%
20:00 +5°C° 0 mm 3 m/s 755 mmHg 89%
21:00 +6°C° 0 mm 2 m/s 755 mmHg 90%
22:00 +5°C° 0 mm 2 m/s 755 mmHg 91%
23:00 +5°C° 0 mm 2 m/s 755 mmHg 92%

18 Aprilie, Duminică

Timp Temperatura Precipitaţii Vânt Presiune Umiditate
00:00 +5°C° 0 mm 2 m/s 755 mmHg 92%
01:00 +4°C° 0 mm 2 m/s 755 mmHg 93%
02:00 +4°C° 0 mm 2 m/s 755 mmHg 93%
03:00 +4°C° 0 mm 2 m/s 755 mmHg 93%
04:00 +5°C° 0 mm 2 m/s 755 mmHg 93%
05:00 +5°C° 0 mm 2 m/s 755 mmHg 92%
06:00 +5°C° 0 mm 2 m/s 755 mmHg 90%
07:00 +5°C° 0 mm 3 m/s 755 mmHg 88%
08:00 +7°C° 0 mm 3 m/s 755 mmHg 83%
09:00 +8°C° 0 mm 3 m/s 755 mmHg 78%
10:00 +9°C° 0 mm 3 m/s 755 mmHg 72%
11:00 +11°C° 0 mm 3 m/s 755 mmHg 66%
12:00 +12°C° 0 mm 3 m/s 755 mmHg 59%
13:00 +13°C° 0 mm 3 m/s 755 mmHg 53%
14:00 +13°C° 0 mm 3 m/s 755 mmHg 57%
15:00 +12°C° 0 mm 3 m/s 755 mmHg 61%
16:00 +12°C° 0 mm 2 m/s 755 mmHg 65%
17:00 +11°C° 0 mm 3 m/s 755 mmHg 67%
18:00 +10°C° 0 mm 3 m/s 755 mmHg 70%
19:00 +9°C° 0 mm 3 m/s 755 mmHg 72%
20:00 +9°C° 0 mm 3 m/s 755 mmHg 74%
21:00 +8°C° 0 mm 3 m/s 755 mmHg 76%
22:00 +8°C° 0 mm 3 m/s 755 mmHg 77%
23:00 +8°C° 0 mm 3 m/s 755 mmHg 77%

19 Aprilie, Luni

Timp Temperatura Precipitaţii Vânt Presiune Umiditate
00:00 +8°C° 0 mm 2 m/s 754 mmHg 76%
01:00 +7°C° 0 mm 2 m/s 754 mmHg 75%
02:00 +7°C° 0 mm 2 m/s 754 mmHg 76%
03:00 +7°C° 0 mm 2 m/s 754 mmHg 76%
04:00 +7°C° 0 mm 2 m/s 753 mmHg 76%
05:00 +8°C° 0.1 mm 3 m/s 753 mmHg 77%
06:00 +8°C° 0.1 mm 3 m/s 753 mmHg 78%
07:00 +8°C° 0.1 mm 3 m/s 753 mmHg 79%
08:00 +8°C° 0.1 mm 4 m/s 753 mmHg 78%
09:00 +10°C° 0.1 mm 4 m/s 753 mmHg 77%
10:00 +9°C° 0.1 mm 5 m/s 752 mmHg 75%
11:00 +9°C° 0 mm 5 m/s 752 mmHg 77%
12:00 +9°C° 0 mm 5 m/s 752 mmHg 78%
13:00 +9°C° 0 mm 5 m/s 751 mmHg 79%
14:00 +10°C° 0.1 mm 4 m/s 751 mmHg 81%
15:00 +8°C° 0.1 mm 4 m/s 751 mmHg 83%
16:00 +9°C° 0.1 mm 3 m/s 751 mmHg 85%
17:00 +9°C° 0.2 mm 3 m/s 750 mmHg 87%
18:00 +9°C° 0.2 mm 3 m/s 750 mmHg 90%
19:00 +8°C° 0.2 mm 3 m/s 749 mmHg 92%
20:00 +8°C° 0.2 mm 3 m/s 749 mmHg 93%
21:00 +8°C° 0.2 mm 3 m/s 749 mmHg 94%
22:00 +8°C° 0.2 mm 3 m/s 748 mmHg 94%
23:00 +8°C° 0.2 mm 3 m/s 748 mmHg 94%

20 Aprilie, Marţi

Timp Temperatura Precipitaţii Vânt Presiune Umiditate
00:00 +8°C° 0.2 mm 3 m/s 747 mmHg 95%
01:00 +8°C° 0.2 mm 3 m/s 747 mmHg 95%
02:00 +8°C° 0.1 mm 3 m/s 746 mmHg 95%
03:00 +7°C° 0.1 mm 4 m/s 746 mmHg 95%
04:00 +7°C° 0.1 mm 4 m/s 746 mmHg 95%
05:00 +7°C° 0.1 mm 4 m/s 745 mmHg 95%
06:00 +7°C° 0.1 mm 4 m/s 745 mmHg 95%
07:00 +7°C° 0.1 mm 4 m/s 744 mmHg 95%
08:00 +7°C° 0.1 mm 5 m/s 744 mmHg 94%
09:00 +7°C° 0.1 mm 5 m/s 744 mmHg 94%
10:00 +7°C° 0.1 mm 5 m/s 743 mmHg 93%
11:00 +7°C° 0.1 mm 5 m/s 743 mmHg 92%
12:00 +7°C° 0.1 mm 5 m/s 743 mmHg 92%
13:00 +7°C° 0.1 mm 4 m/s 743 mmHg 91%
14:00 +7°C° 0.3 mm 4 m/s 743 mmHg 91%
15:00 +7°C° 0.3 mm 4 m/s 742 mmHg 92%
16:00 +6°C° 0.3 mm 4 m/s 742 mmHg 92%
17:00 +6°C° 0.5 mm 4 m/s 742 mmHg 92%
18:00 +6°C° 0.5 mm 4 m/s 742 mmHg 93%
19:00 +5°C° 0.5 mm 4 m/s 742 mmHg 93%
20:00 +5°C° 0.2 mm 4 m/s 742 mmHg 93%
21:00 +5°C° 0.2 mm 4 m/s 742 mmHg 93%
22:00 +4°C° 0.2 mm 4 m/s 742 mmHg 93%
23:00 +3°C° 0.2 mm 5 m/s 741 mmHg 93%
Arată mai mult

Formular de consimțământ

Meteoprog și furnizorii noștri de servicii pot stoca și accesa date personale, precum cookies, identificatori de dispozitiv sau alte tehnologii similare pe dispozitivul dumneavoastră și procesa astfel de date pentru a personaliza conținutul și reclamele, dar și pentru a oferi caracteristici de social media și pentru a analiza traficul.

  • Stocarea și/sau accesarea informațiilor pe dispozitivul dumneavoastră

    Cookies, identificatori de dispozitiv sau alte informații pot fi stocate sau accesate pe dispozitiv în scopurile indicate mai sus.

  • Reclame și conținut personalizat, evaluarea reclamelor și a conținutului, informații despre audiențe și dezvoltarea produselor

    Reclamele și conținutul pot fi personalizate pe baza unui profil. Pot fi adăugate date suplimentare pentru a personaliza mai bine reclamele și conținutul. Performanța reclamelor și conținutului poate fi măsurată. Pot fi obținute informații despre utilizatorii care au văzut reclamele și conținutul. Aceste date pot fi utilizate pentru a dezvolta sau îmbunătăți experiența utilizatorilor, sistemele și software-ul.

Dând clic pe ‘Sunt de acord’, permiteți utilizarea cookie-urilor menționate, a identificatorilor de dispozitiv, balizelor web sau altor tehnologii similare. Setările pot fi modificate din browser-ul dispozitivului dumneavoastră.

În anumite scopuri, interesele legitime pot prima asupra consimțământului. Puteți citi mai multe informații în acest sens în Politica privind Confidențialitatea Datelor și Cookie.